Time,TemperatureF,DewpointF,PressureIn,WindDirection,WindDirectionDegrees,WindSpeedMPH,WindSpeedGustMPH,Humidity,HourlyPrecipIn,Conditions,Clouds,dailyrainin,SoftwareType,DateUTC
2013-01-24 00:02:00,29.0,15.0,-100.00,ENE,76,0.0,0.0,56,0.00,,,-99.99,,2013-01-24 07:02:00,
2013-01-24 00:12:00,29.0,15.0,-100.00,ENE,73,4.0,4.0,54,0.00,,,-99.99,,2013-01-24 07:12:00,
2013-01-24 00:22:00,32.0,13.0,-100.00,ENE,78,4.0,4.0,45,0.00,,,-99.99,,2013-01-24 07:22:00,
2013-01-24 00:32:00,32.0,13.0,-100.00,ENE,78,4.0,4.0,45,0.00,,,-99.99,,2013-01-24 07:32:00,
2013-01-24 00:42:00,33.0,12.0,-100.00,East,99,2.0,3.0,42,0.00,,,-99.99,,2013-01-24 07:42:00,
2013-01-24 00:53:00,32.0,13.0,-100.00,SE,136,1.0,2.0,44,0.00,,,-99.99,,2013-01-24 07:53:00,
2013-01-24 01:01:00,32.0,13.0,-100.00,SE,136,1.0,2.0,44,0.00,,,-99.99,,2013-01-24 08:01:00,
2013-01-24 01:12:00,32.0,12.0,-100.00,SE,137,1.0,1.0,43,0.00,,,-99.99,,2013-01-24 08:12:00,
2013-01-24 01:22:00,32.0,13.0,-100.00,SE,127,2.0,3.0,44,0.00,,,-99.99,,2013-01-24 08:22:00,
2013-01-24 01:32:00,32.0,13.0,-100.00,SE,127,2.0,3.0,44,0.00,,,-99.99,,2013-01-24 08:32:00,
2013-01-24 01:42:00,31.0,14.0,-100.00,SE,127,4.0,4.0,50,0.00,,,-99.99,,2013-01-24 08:42:00,
2013-01-24 01:53:00,30.0,17.0,-100.00,ESE,116,5.0,5.0,57,0.00,,,-99.99,,2013-01-24 08:53:00,
2013-01-24 02:02:00,30.0,17.0,-100.00,ESE,116,5.0,5.0,57,0.00,,,-99.99,,2013-01-24 09:02:00,
2013-01-24 02:12:00,31.0,15.0,-100.00,ESE,121,3.0,4.0,51,0.00,,,-99.99,,2013-01-24 09:12:00,
2013-01-24 02:22:00,31.0,15.0,-100.00,ESE,106,3.0,4.0,51,0.00,,,-99.99,,2013-01-24 09:22:00,
2013-01-24 02:32:00,31.0,15.0,-100.00,ESE,106,3.0,4.0,51,0.00,,,-99.99,,2013-01-24 09:32:00,
2013-01-24 02:42:00,33.0,15.0,-100.00,East,96,2.0,3.0,46,0.00,,,-99.99,,2013-01-24 09:42:00,
2013-01-24 02:53:00,31.0,15.0,-100.00,East,96,1.0,4.0,51,0.00,,,-99.99,,2013-01-24 09:53:00,
2013-01-24 03:02:00,31.0,15.0,-100.00,East,96,1.0,4.0,51,0.00,,,-99.99,,2013-01-24 10:02:00,
2013-01-24 03:12:00,30.0,16.0,-100.00,ESE,112,3.0,4.0,57,0.00,,,-99.99,,2013-01-24 10:12:00,
2013-01-24 03:22:00,33.0,17.0,-100.00,ESE,120,3.0,4.0,52,0.00,,,-99.99,,2013-01-24 10:22:00,
2013-01-24 03:32:00,33.0,17.0,-100.00,ESE,120,3.0,4.0,52,0.00,,,-99.99,,2013-01-24 10:32:00,
2013-01-24 03:42:00,35.0,19.0,-100.00,ESE,104,3.0,4.0,52,0.00,,,-99.99,,2013-01-24 10:42:00,
2013-01-24 03:53:00,36.0,15.0,-100.00,SE,138,2.0,4.0,42,0.00,,,-99.99,,2013-01-24 10:53:00,
2013-01-24 04:02:00,36.0,15.0,-100.00,SE,138,2.0,4.0,42,0.00,,,-99.99,,2013-01-24 11:02:00,
2013-01-24 04:12:00,37.0,17.0,-100.00,SSE,150,1.0,2.0,43,0.00,,,-99.99,,2013-01-24 11:12:00,
2013-01-24 04:22:00,36.0,15.0,-100.00,SE,143,0.0,1.0,41,0.00,,,-99.99,,2013-01-24 11:22:00,
2013-01-24 04:32:00,36.0,15.0,-100.00,SE,143,0.0,1.0,41,0.00,,,-99.99,,2013-01-24 11:32:00,
2013-01-24 04:42:00,35.0,16.0,-100.00,West,263,0.0,1.0,45,0.00,,,-99.99,,2013-01-24 11:42:00,
2013-01-24 04:53:00,34.0,18.0,-100.00,South,188,0.0,1.0,51,0.00,,,-99.99,,2013-01-24 11:53:00,
2013-01-24 05:02:00,34.0,18.0,-100.00,South,188,0.0,1.0,51,0.00,,,-99.99,,2013-01-24 12:02:00,
2013-01-24 05:12:00,33.0,17.0,-100.00,South,171,2.0,2.0,51,0.00,,,-99.99,,2013-01-24 12:12:00,
2013-01-24 05:22:00,33.0,18.0,-100.00,SE,134,2.0,2.0,54,0.00,,,-99.99,,2013-01-24 12:22:00,
2013-01-24 05:32:00,33.0,18.0,-100.00,SE,134,2.0,2.0,54,0.00,,,-99.99,,2013-01-24 12:32:00,
2013-01-24 05:42:00,34.0,16.0,-100.00,SSW,193,2.0,3.0,48,0.00,,,-99.99,,2013-01-24 12:42:00,
2013-01-24 05:53:00,33.0,16.0,-100.00,South,174,2.0,2.0,49,0.00,,,-99.99,,2013-01-24 12:53:00,
2013-01-24 06:02:00,33.0,16.0,-100.00,South,174,2.0,2.0,49,0.00,,,-99.99,,2013-01-24 13:02:00,
2013-01-24 06:12:00,32.0,15.0,-100.00,SW,233,1.0,2.0,47,0.00,,,-99.99,,2013-01-24 13:12:00,
2013-01-24 06:22:00,33.0,17.0,-100.00,SE,141,2.0,3.0,51,0.00,,,-99.99,,2013-01-24 13:22:00,
2013-01-24 06:32:00,33.0,17.0,-100.00,SE,141,2.0,3.0,51,0.00,,,-99.99,,2013-01-24 13:32:00,
2013-01-24 06:42:00,34.0,17.0,-100.00,SSE,150,1.0,2.0,51,0.00,,,-99.99,,2013-01-24 13:42:00,
2013-01-24 06:53:00,33.0,19.0,-100.00,SSW,206,1.0,1.0,55,0.00,,,-99.99,,2013-01-24 13:53:00,
2013-01-24 07:02:00,33.0,19.0,-100.00,SSW,206,1.0,1.0,55,0.00,,,-99.99,,2013-01-24 14:02:00,
2013-01-24 07:12:00,33.0,18.0,-100.00,SE,128,1.0,2.0,55,0.00,,,-99.99,,2013-01-24 14:12:00,
2013-01-24 07:22:00,33.0,16.0,-100.00,West,274,3.0,4.0,50,0.00,,,-99.99,,2013-01-24 14:22:00,
2013-01-24 07:32:00,33.0,16.0,-100.00,West,274,3.0,4.0,50,0.00,,,-99.99,,2013-01-24 14:32:00,
2013-01-24 07:43:00,33.0,18.0,-100.00,West,278,2.0,2.0,56,0.00,,,-99.99,,2013-01-24 14:43:00,
2013-01-24 07:54:00,35.0,25.0,-100.00,SW,217,4.0,6.0,66,0.00,,,-99.99,,2013-01-24 14:54:00,
2013-01-24 08:02:00,35.0,25.0,-100.00,SW,217,4.0,6.0,66,0.00,,,-99.99,,2013-01-24 15:02:00,
2013-01-24 08:12:00,35.0,31.0,-100.00,South,191,10.0,11.0,86,0.00,,,-99.99,,2013-01-24 15:12:00,
2013-01-24 08:22:00,34.0,32.0,-100.00,South,185,9.0,11.0,94,0.00,,,-99.99,,2013-01-24 15:22:00,
2013-01-24 08:32:00,34.0,32.0,-100.00,South,185,9.0,11.0,94,0.00,,,-99.99,,2013-01-24 15:32:00,
2013-01-24 08:42:00,33.0,33.0,-100.00,South,179,9.0,10.0,99,0.00,,,-99.99,,2013-01-24 15:42:00,
2013-01-24 08:53:00,33.0,33.0,-100.00,SSE,167,8.0,10.0,100,0.00,,,-99.99,,2013-01-24 15:53:00,
2013-01-24 09:02:00,33.0,33.0,-100.00,SSE,167,8.0,10.0,100,0.00,,,-99.99,,2013-01-24 16:02:00,
2013-01-24 09:12:00,34.0,34.0,-100.00,South,169,9.0,11.0,100,0.00,,,-99.99,,2013-01-24 16:12:00,
2013-01-24 09:22:00,34.0,34.0,-100.00,SSE,168,10.0,11.0,100,0.00,,,-99.99,,2013-01-24 16:22:00,
2013-01-24 09:33:00,34.0,34.0,-100.00,SSE,168,10.0,11.0,100,0.00,,,-99.99,,2013-01-24 16:33:00,
2013-01-24 10:01:00,34.0,34.0,-100.00,SSE,168,10.0,12.0,100,0.00,,,-99.99,,2013-01-24 17:01:00,
2013-01-24 10:11:00,35.0,34.0,-100.00,SSE,165,8.0,9.0,100,0.00,,,-99.99,,2013-01-24 17:11:00,
2013-01-24 10:21:00,35.0,34.0,-100.00,SSE,165,8.0,9.0,100,0.00,,,-99.99,,2013-01-24 17:21:00,
2013-01-24 10:32:00,34.0,34.0,-100.00,South,169,9.0,11.0,100,0.00,,,-99.99,,2013-01-24 17:32:00,
2013-01-24 10:42:00,34.0,34.0,-100.00,South,169,9.0,11.0,100,0.00,,,-99.99,,2013-01-24 17:42:00,
2013-01-24 10:52:00,34.0,34.0,-100.00,South,178,8.0,9.0,100,0.00,,,-99.99,,2013-01-24 17:52:00,
2013-01-24 11:01:00,34.0,34.0,-100.00,South,178,8.0,9.0,100,0.00,,,-99.99,,2013-01-24 18:01:00,
2013-01-24 11:12:00,34.0,34.0,-100.00,South,188,6.0,7.0,100,0.00,,,-99.99,,2013-01-24 18:12:00,
2013-01-24 11:22:00,34.0,34.0,-100.00,South,185,6.0,8.0,99,0.00,,,-99.99,,2013-01-24 18:22:00,
2013-01-24 11:32:00,34.0,34.0,-100.00,South,185,6.0,8.0,99,0.00,,,-99.99,,2013-01-24 18:32:00,
2013-01-24 11:42:00,34.0,34.0,-100.00,South,176,8.0,9.0,98,0.00,,,-99.99,,2013-01-24 18:42:00,
2013-01-24 11:53:00,34.0,33.0,-100.00,South,175,8.0,10.0,97,0.00,,,-99.99,,2013-01-24 18:53:00,
2013-01-24 12:01:00,34.0,33.0,-100.00,South,175,8.0,10.0,97,0.00,,,-99.99,,2013-01-24 19:01:00,
2013-01-24 12:12:00,34.0,33.0,-100.00,South,181,10.0,13.0,96,0.00,,,-99.99,,2013-01-24 19:12:00,
2013-01-24 12:21:00,34.0,33.0,-100.00,South,181,10.0,13.0,96,0.00,,,-99.99,,2013-01-24 19:21:00,
2013-01-24 12:32:00,34.0,33.0,-100.00,South,181,10.0,13.0,96,0.00,,,-99.99,,2013-01-24 19:32:00,
2013-01-24 12:42:00,34.0,33.0,-100.00,South,182,10.0,12.0,98,0.00,,,-99.99,,2013-01-24 19:42:00,
2013-01-24 12:52:00,34.0,33.0,-100.00,South,186,9.0,12.0,97,0.00,,,-99.99,,2013-01-24 19:52:00,
2013-01-24 13:01:00,34.0,33.0,-100.00,South,186,9.0,12.0,97,0.00,,,-99.99,,2013-01-24 20:01:00,
2013-01-24 13:11:00,34.0,33.0,-100.00,South,186,11.0,13.0,95,0.00,,,-99.99,,2013-01-24 20:11:00,
2013-01-24 13:22:00,34.0,33.0,-100.00,South,185,11.0,13.0,96,0.00,,,-99.99,,2013-01-24 20:22:00,
2013-01-24 13:32:00,34.0,33.0,-100.00,South,185,11.0,13.0,96,0.00,,,-99.99,,2013-01-24 20:32:00,
2013-01-24 13:42:00,34.0,33.0,-100.00,SSW,193,10.0,11.0,98,0.00,,,-99.99,,2013-01-24 20:42:00,
2013-01-24 13:52:00,33.0,33.0,-100.00,SSW,192,10.0,12.0,99,0.00,,,-99.99,,2013-01-24 20:52:00,
2013-01-24 14:02:00,33.0,33.0,-100.00,SSW,192,10.0,12.0,99,0.00,,,-99.99,,2013-01-24 21:02:00,
2013-01-24 14:11:00,33.0,33.0,-100.00,South,191,8.0,9.0,100,0.00,,,-99.99,,2013-01-24 21:11:00,
2013-01-24 14:22:00,34.0,34.0,-100.00,SSW,198,8.0,10.0,100,0.00,,,-99.99,,2013-01-24 21:22:00,
2013-01-24 14:32:00,34.0,34.0,-100.00,SSW,198,8.0,10.0,100,0.00,,,-99.99,,2013-01-24 21:32:00,
2013-01-24 14:42:00,34.0,34.0,-100.00,SSW,193,6.0,8.0,100,0.00,,,-99.99,,2013-01-24 21:42:00,
2013-01-24 14:52:00,34.0,34.0,-100.00,SSW,193,6.0,8.0,100,0.00,,,-99.99,,2013-01-24 21:52:00,
2013-01-24 15:02:00,34.0,34.0,-100.00,SSW,192,5.0,6.0,100,0.00,,,-99.99,,2013-01-24 22:02:00,
2013-01-24 15:12:00,34.0,34.0,-100.00,South,184,4.0,4.0,100,0.04,,,-99.99,,2013-01-24 22:12:00,
2013-01-24 15:22:00,34.0,34.0,-100.00,South,185,6.0,7.0,100,0.00,,,-99.99,,2013-01-24 22:22:00,
2013-01-24 15:32:00,34.0,34.0,-100.00,South,185,6.0,7.0,100,0.00,,,-99.99,,2013-01-24 22:32:00,
2013-01-24 15:42:00,34.0,34.0,-100.00,South,189,5.0,6.0,100,0.04,,,-99.99,,2013-01-24 22:42:00,
2013-01-24 15:53:00,34.0,34.0,-100.00,SSW,193,5.0,6.0,100,0.00,,,-99.99,,2013-01-24 22:53:00,
2013-01-24 16:01:00,34.0,34.0,-100.00,SSW,193,5.0,6.0,100,0.00,,,-99.99,,2013-01-24 23:01:00,
2013-01-24 16:11:00,34.0,34.0,-100.00,SSW,196,4.0,4.0,100,0.00,,,-99.99,,2013-01-24 23:11:00,
2013-01-24 16:21:00,34.0,34.0,-100.00,South,176,5.0,6.0,99,0.00,,,-99.99,,2013-01-24 23:21:00,
2013-01-24 16:32:00,34.0,34.0,-100.00,South,176,5.0,6.0,99,0.00,,,-99.99,,2013-01-24 23:32:00,
2013-01-24 16:42:00,34.0,34.0,-100.00,South,176,4.0,5.0,98,0.00,,,-99.99,,2013-01-24 23:42:00,
2013-01-24 16:52:00,35.0,34.0,-100.00,South,184,3.0,4.0,97,0.00,,,-99.99,,2013-01-24 23:52:00,
2013-01-24 17:01:00,35.0,34.0,-100.00,South,184,3.0,4.0,97,0.00,,,-99.99,,2013-01-25 00:01:00,
2013-01-24 17:12:00,35.0,34.0,-100.00,SSW,195,3.0,4.0,97,0.00,,,-99.99,,2013-01-25 00:12:00,
2013-01-24 17:22:00,35.0,34.0,-100.00,SSW,192,5.0,6.0,97,0.00,,,-99.99,,2013-01-25 00:22:00,
2013-01-24 17:32:00,35.0,34.0,-100.00,SSW,192,5.0,6.0,97,0.00,,,-99.99,,2013-01-25 00:32:00,
2013-01-24 17:41:00,35.0,34.0,-100.00,SSW,193,5.0,7.0,97,0.00,,,-99.99,,2013-01-25 00:41:00,
2013-01-24 17:52:00,34.0,34.0,-100.00,SSW,195,5.0,6.0,98,0.00,,,-99.99,,2013-01-25 00:52:00,
2013-01-24 18:01:00,34.0,34.0,-100.00,SSW,195,5.0,6.0,98,0.00,,,-99.99,,2013-01-25 01:01:00,
2013-01-24 18:11:00,34.0,34.0,-100.00,SSW,193,6.0,7.0,97,0.00,,,-99.99,,2013-01-25 01:11:00,
2013-01-24 18:21:00,35.0,33.0,-100.00,SSW,199,5.0,6.0,96,0.00,,,-99.99,,2013-01-25 01:21:00,
2013-01-24 18:31:00,35.0,33.0,-100.00,SSW,199,5.0,6.0,96,0.00,,,-99.99,,2013-01-25 01:31:00,
2013-01-24 18:41:00,34.0,34.0,-100.00,SW,236,2.0,3.0,99,0.00,,,-99.99,,2013-01-25 01:41:00,
2013-01-24 18:52:00,33.0,33.0,-100.00,WSW,250,4.0,4.0,100,0.00,,,-99.99,,2013-01-25 01:52:00,
2013-01-24 19:01:00,33.0,33.0,-100.00,WSW,250,4.0,4.0,100,0.00,,,-99.99,,2013-01-25 02:01:00,
2013-01-24 19:11:00,32.0,32.0,-100.00,SW,234,3.0,4.0,100,0.00,,,-99.99,,2013-01-25 02:11:00,
2013-01-24 19:22:00,33.0,33.0,-100.00,SSW,209,3.0,4.0,100,0.00,,,-99.99,,2013-01-25 02:22:00,
2013-01-24 19:31:00,33.0,33.0,-100.00,SSW,209,3.0,4.0,100,0.00,,,-99.99,,2013-01-25 02:31:00,
2013-01-24 19:42:00,33.0,33.0,-100.00,SSW,208,5.0,6.0,100,0.00,,,-99.99,,2013-01-25 02:42:00,
2013-01-24 19:52:00,33.0,33.0,-100.00,SW,217,4.0,5.0,100,0.00,,,-99.99,,2013-01-25 02:52:00,
2013-01-24 20:01:00,33.0,33.0,-100.00,SW,217,4.0,5.0,100,0.00,,,-99.99,,2013-01-25 03:01:00,
2013-01-24 20:12:00,33.0,33.0,-100.00,SW,217,4.0,5.0,100,0.00,,,-99.99,,2013-01-25 03:12:00,
2013-01-24 20:21:00,33.0,33.0,-100.00,SW,217,4.0,5.0,100,0.00,,,-99.99,,2013-01-25 03:21:00,
2013-01-24 20:32:00,33.0,33.0,-100.00,SW,217,4.0,5.0,100,0.00,,,-99.99,,2013-01-25 03:32:00,
2013-01-24 20:41:00,33.0,33.0,-100.00,SW,223,4.0,4.0,100,0.00,,,-99.99,,2013-01-25 03:41:00,
2013-01-24 20:52:00,32.0,32.0,-100.00,SW,215,5.0,6.0,100,0.00,,,-99.99,,2013-01-25 03:52:00,
2013-01-24 21:02:00,32.0,32.0,-100.00,SW,215,5.0,6.0,100,0.00,,,-99.99,,2013-01-25 04:02:00,
2013-01-24 21:11:00,32.0,32.0,-100.00,SSW,209,6.0,7.0,100,0.00,,,-99.99,,2013-01-25 04:11:00,
2013-01-24 21:22:00,32.0,32.0,-100.00,SSW,209,5.0,6.0,100,0.00,,,-99.99,,2013-01-25 04:22:00,
2013-01-24 21:31:00,32.0,32.0,-100.00,SSW,209,5.0,6.0,100,0.00,,,-99.99,,2013-01-25 04:31:00,
2013-01-24 21:41:00,32.0,32.0,-100.00,SSW,208,5.0,6.0,100,0.00,,,-99.99,,2013-01-25 04:41:00,
2013-01-24 21:51:00,32.0,32.0,-100.00,SSW,202,5.0,6.0,100,0.00,,,-99.99,,2013-01-25 04:51:00,
2013-01-24 22:03:00,32.0,32.0,-100.00,SSW,202,5.0,6.0,100,0.00,,,-99.99,,2013-01-25 05:03:00,
2013-01-24 22:12:00,32.0,32.0,-100.00,SSW,193,3.0,4.0,100,0.04,,,-99.99,,2013-01-25 05:12:00,
2013-01-24 22:22:00,33.0,33.0,-100.00,SE,138,1.0,1.0,100,0.08,,,-99.99,,2013-01-25 05:22:00,
2013-01-24 22:32:00,33.0,33.0,-100.00,SE,138,1.0,1.0,100,0.08,,,-99.99,,2013-01-25 05:32:00,
2013-01-24 22:42:00,32.0,32.0,-100.00,SE,124,1.0,2.0,100,0.24,,,-99.99,,2013-01-25 05:42:00,
2013-01-24 22:52:00,33.0,33.0,-100.00,SSW,199,4.0,5.0,100,0.04,,,-99.99,,2013-01-25 05:52:00,
2013-01-24 23:01:00,33.0,33.0,-100.00,SSW,199,4.0,5.0,100,0.04,,,-99.99,,2013-01-25 06:01:00,
2013-01-24 23:11:00,33.0,33.0,-100.00,South,185,6.0,7.0,100,0.00,,,-99.99,,2013-01-25 06:11:00,
2013-01-24 23:21:00,33.0,33.0,-100.00,South,178,4.0,5.0,100,0.00,,,-99.99,,2013-01-25 06:21:00,
2013-01-24 23:31:00,33.0,33.0,-100.00,South,178,4.0,5.0,100,0.00,,,-99.99,,2013-01-25 06:31:00,
2013-01-24 23:41:00,33.0,33.0,-100.00,South,176,3.0,4.0,100,0.00,,,-99.99,,2013-01-25 06:41:00,
2013-01-24 23:52:00,33.0,33.0,-100.00,South,171,2.0,3.0,100,0.00,,,-99.99,,2013-01-25 06:52:00,